GENESIS 2 (31789 NORAD) Tracking and Keplerian Element Data

This shows tracking and keplerian element data for the satellite.

Feedback or suggestion? Click here.




ElementValue
Catalog31789
NameGENESIS 2
Epoch Orbit80281
Epoch Day16.04902704
Epoch Year2022
RAAN253.8407
Inclination64.4968
Eccentricity0.0029968
Argument of Perigee345.929
Mean Anonmoly14.0995
Mean Motion15.18344003
Decay Rate2.507E-05
L11 31789U 07028A 22016.04902704 .00002507 00000+0 13019-3 0 9992
L22 31789 64.4968 253.8407 0029968 345.9290 14.0995 15.18344003802818

Live tracking and technical data element details for GENESIS 2 (NORAD 31789). GENESIS 2 can be tracked NOW for your location showing map with azimuth and elevation plus other details from your city location.

Track the satellite on the map from your city or location and see movement details for azimuth, elevation, latitude, longitude, range, height, and movement on the map or in text.







IsCatalogInMostPopularTable: catalog: 31789, numindb: 473
Update: records affected: 1



GetName: 31789 GENESIS 2

Hit Count: updated at: Mon, 17 Jan 2022 01:58:42 GMT